2023-123B (57655 NORAD) Tracking and Keplerian Element Data

This shows tracking and keplerian element data for the satellite.

Feedback or suggestion? Click here.




ElementValue
Catalog57655
Name2023-123B
Epoch Orbit93
Epoch Day238.96764343
Epoch Year2023
RAAN155.5553
Inclination97.884
Eccentricity0.0101111
Argument of Perigee35.6636
Mean Anonmoly94.1767
Mean Motion15.10819164
Decay Rate9.38E-05
L11 57655U 23123B 23238.96764343 .00009380 00000+0 50309-3 0 9998
L22 57655 97.8840 155.5553 0101111 35.6636 94.1767 15.10819164 931



Live tracking and technical data element details for 2023-123B (NORAD 57655). 2023-123B can be tracked NOW for your location showing map with azimuth and elevation plus other details from your city location.







IsCatalogInMostPopularTable: catalog: 57655, numindb: 24
Update: records affected: 1



GetName: 57655 2023-123B

Hit Count: updated at: Mon, 04 Dec 2023 03:01:29 GMT